Showing default

DEKART, 46493

Orbit data source: Space-Track

DEKART, 46493 is a payload satellite owned by MGU (CIS) in SSO that was launched on Mon, 28 Sep 2020 UTC via a SOYUZ-2-1B launch vehicle from the Plesetsk Missile And Space Complex (PKMTR). Payloads include a variety of satellites, spacecraft, and rockets equipped with specific instruments for various scientific and technological missions. These include communications satellites like Starlink; space stations such as the ISS; scientific satellites like the Hubble; Earth observation satellites from companies like Planet Labs, Umbra, and HawkEye 360; GPS; miniature CubeSats for education and research; and military/defense satellites.

Loading next visibility...
DEKART details
Identifier
46493, 2020-068H
Orbit
SSO
Last TLE update8 hours ago
Origin
Flag of CISMGU (CIS)
ManufacturerMGU
MissionOperational Amateur Science
Bus & MotorCUBESAT 3U, Unknown motor
Mass4 kg wet, 4 kg dry
Launch date (UTC)
2020-09-28 (4 years ago)
Launch vehicle
SOYUZ-2-1B
Launch site
Plesetsk Missile And Space Complex (PKMTR)
Object type
Payload
Rocket body
Debris
Shape & HBRBox, Unknown HBR
Radar Cross Section0.035 m², Medium (>0.1 m² and < 1m²)

Expand to show TLE details & history

TLE from 8 hours ago
0 DEKART
1 46493U 20068H   24361.20381921  .00018379  00000-0  81403-3 0  9991
2 46493  97.8399 328.3506 0014031  22.1800 338.0038 15.21609554233520
Epoch: 2024-12-26T04:53Z
Definitive object data (Epoch: 2024-12-26T04:53:29.979Z)
Latitude-0.00013°
Longitude159.78913°
Altitude495.115 km
Speed7.622 km/s
True Right ascension21h 53m 24s
True Declination0° 00' 00"
Sunlit
Object was in daylight at TLE epoch
Visualization TLE readout
Latitude75.29264°
Longitude11.5967°
Altitude512.377 km
Speed7.615 km/s
Apparent Right ascension00h 54m 43s
Apparent Declination39° 00' 11"
Sunlit
Object is in full shadow
Visualization observer readout
Local Sidereal Time12:35:30
Azimuth356.199° N
Elevation-10.959°
Doppler factor1
Orbital elements
Apogee altitude507.616 km
Perigee altitude488.32 km
Semi-major axis6,876.105 km
Eccentricity0.0014031
Inclination97.8399°
RAAN328.3506°
Arg. of periapsis22.18°
True anomaly337.94348°
Mean anomaly338.0038°
Eccentric anomaly337.97365°
Mean motion3.80653 °/min
BSTAR0.00081403
Orbital period94.57 mins
Loading maneuver chart data...
Loading historical data...
Loading historical data...
Loading historical data...
Loading historical data...
Loading historical data...
Loading historical data...
Loading historical data...

DEKART Visibility forecast

Observer location: undefined°, undefined

Span
Click to sort rows by Start time (UTC) header in descending order
Start Az.
Max El. time (UTC)
Max El. Az.
Max El.
End time (UTC)
End Az.
5 mins2024-12-26 22:23:52.079Z198.632° SSW2024-12-26 22:25:52.079Z280.703° WNW35.982°2024-12-26 22:28:52.079Z335.353° NNW
5 mins2024-12-27 11:26:52.079Z343.48° N2024-12-27 11:28:52.079Z291.459° WNW30.392°2024-12-27 11:31:52.079Z223.869° SW
|